CW4482 Weather Reports


Display with metric or nautical units.
time (UTC)temp
F
wind
direction
speed
MPH
gust
MPH
rain 1hr
in
rain 24hr
in
rain mn
in
humidity
%
barometer
mb
20200226194031 53 348 7.0 20.0 0.00 0.00 0.00 51 1026.9
20200226193021 53 292 12.0 19.0 0.00 0.00 0.00 50 1026.8
20200226192019 52 271 6.0 20.0 0.00 0.00 0.00 52 1027.0
20200226191030 53 273 9.0 21.0 0.00 0.00 0.00 50 1027.1
20200226190028 53 10 5.0 15.0 0.00 0.00 0.00 52 1027.1
20200226185018 52 43 5.0 18.0 0.00 0.00 0.00 52 1027.3
20200226184017 52 265 8.0 18.0 0.00 0.00 0.00 50 1027.4
20200226183033 52 270 6.0 19.0 0.00 0.00 0.00 52 1027.4
20200226182020 53 355 9.0 18.0 0.00 0.00 0.00 50 1027.5
20200226181011 53 360 12.0 25.0 0.00 0.00 0.00 49 1027.5
20200226180030 53 290 7.0 21.0 0.00 0.00 0.00 50 1027.7
20200226175021 52 288 8.0 20.0 0.00 0.00 0.00 49 1027.8
20200226174019 51 30 7.0 21.0 0.00 0.00 0.00 52 1027.9
20200226173036 51 298 8.0 19.0 0.00 0.00 0.00 53 1027.9
20200226172012 51 300 8.0 20.0 0.00 0.00 0.00 51 1028.0
20200226171030 50 273 9.0 27.0 0.00 0.00 0.00 54 1028.0
20200226170019 50 317 15.0 27.0 0.00 0.00 0.00 54 1028.2
20200226165037 49 346 11.0 23.0 0.00 0.00 0.00 56 1028.2
20200226164030 48 313 10.0 21.0 0.00 0.00 0.00 58 1028.2
20200226163027 48 273 11.0 22.0 0.00 0.00 0.00 57 1028.2
20200226162019 48 297 10.0 23.0 0.00 0.00 0.00 56 1028.2
20200226161017 48 297 12.0 24.0 0.00 0.00 0.00 56 1028.2
20200226160028 48 273 7.0 20.0 0.00 0.00 0.00 57 1028.0
20200226155025 48 311 7.0 26.0 0.00 0.00 0.00 59 1028.0
20200226154016 48 306 11.0 21.0 0.00 0.00 0.00 58 1027.9
20200226153014 47 294 11.0 20.0 0.00 0.00 0.00 58 1027.9
20200226152024 47 355 7.0 17.0 0.00 0.00 0.00 59 1027.9
20200226151023 47 317 7.0 16.0 0.00 0.00 0.00 60 1027.6
20200226150024 46 360 8.0 17.0 0.00 0.00 0.00 59 1027.4
20200226145023 46 304 9.0 19.0 0.00 0.00 0.00 59 1027.4
20200226144023 46 292 8.0 23.0 0.00 0.00 0.00 59 1027.3
20200226143014 46 305 10.0 21.0 0.00 0.00 0.00 59 1027.1
20200226142032 45 344 7.0 18.0 0.00 0.00 0.00 60 1026.9
20200226141024 45 319 9.0 24.0 0.00 0.00 0.00 60 1026.9
20200226140016 45 284 12.0 22.0 0.00 0.00 0.00 59 1026.6
20200226135013 45 273 10.0 18.0 0.00 0.00 0.00 58 1026.5
20200226134032 45 312 11.0 21.0 0.00 0.00 0.00 58 1026.2
20200226133023 45 294 11.0 22.0 0.00 0.00 0.00 57 1026.0
20200226132021 45 335 7.0 20.0 0.00 0.00 0.00 57 1025.8
20200226131032 46 306 7.0 29.0 0.00 0.00 0.00 56 1025.7
20200226130029 46 314 13.0 25.0 0.00 0.00 0.00 54 1025.5
20200226125020 46 5 9.0 21.0 0.00 0.00 0.00 54 1025.2
20200226124023 47 283 9.0 18.0 0.00 0.00 0.00 55 1024.9
20200226123015 47 293 9.0 19.0 0.00 0.00 0.00 53 1024.7
20200226122032 48 337 9.0 24.0 0.00 0.00 0.00 52 1024.5
20200226121023 48 317 10.0 24.0 0.00 0.00 0.00 50 1024.3
20200226120032 48 273 12.0 25.0 0.00 0.00 0.00 49 1024.3
20200226115023 49 351 9.0 18.0 0.00 0.00 0.00 48 1023.8
20200226114021 49 337 10.0 23.0 0.00 0.00 0.00 46 1023.6
20200226113029 50 296 10.0 23.0 0.00 0.00 0.00 44 1023.4
20200226112020 50 286 13.0 23.0 0.00 0.00 0.00 42 1023.3
20200226111013 51 290 7.0 15.0 0.00 0.00 0.00 42 1023.1
20200226110031 51 283 10.0 22.0 0.00 0.00 0.00 42 1022.7
20200226105028 52 298 5.0 19.0 0.00 0.00 0.00 42 1022.5
20200226104019 52 355 11.0 21.0 0.00 0.00 0.00 40 1022.2
20200226103022 53 281 7.0 21.0 0.00 0.00 0.00 40 1022.1
20200226102013 53 288 7.0 14.0 0.00 0.00 0.00 38 1021.6
20200226101031 53 263 8.0 15.0 0.00 0.00 0.00 37 1021.5
20200226100019 53 286 7.0 14.0 0.00 0.00 0.00 39 1021.4
20200226095016 54 295 2.0 9.0 0.00 0.00 0.00 38 1021.1
20200226094035 54 317 4.0 12.0 0.00 0.00 0.00 38 1021.0
20200226093025 54 331 4.0 14.0 0.00 0.00 0.00 38 1021.0
20200226092017 54 336 4.0 15.0 0.00 0.00 0.00 37 1020.9
20200226091014 54 329 7.0 17.0 0.00 0.00 0.00 38 1020.5
20200226090033 55 17 4.0 15.0 0.00 0.00 0.00 36 1020.4
20200226085023 55 307 6.0 15.0 0.00 0.00 0.00 35 1020.6
20200226083030 55 305 5.0 19.0 0.00 0.00 0.00 35 1020.7
20200226082029 55 325 3.0 14.0 0.00 0.00 0.00 38 1020.4
20200226081019 55 340 6.0 12.0 0.00 0.00 0.00 39 1020.5
20200226080021 55 302 5.0 14.0 0.00 0.00 0.00 41 1020.4
20200226075031 55 314 5.0 14.0 0.00 0.00 0.00 43 1020.4
20200226074030 55 295 5.0 14.0 0.00 0.00 0.00 45 1020.4
20200226073022 56 355 6.0 16.0 0.00 0.00 0.00 46 1020.1
20200226072019 56 355 4.0 13.0 0.00 0.00 0.00 46 1020.1
20200226071030 56 360 4.0 11.0 0.00 0.00 0.00 47 1020.2
20200226070018 56 258 2.0 10.0 0.00 0.00 0.00 49 1020.2
20200226065037 56 304 6.0 17.0 0.00 0.00 0.00 49 1020.5
20200226064027 56 246 5.0 14.0 0.00 0.00 0.00 50 1020.7
20200226063028 56 302 10.0 20.0 0.00 0.00 0.00 51 1020.3
20200226062017 56 323 5.0 14.0 0.00 0.00 0.00 55 1020.1
20200226061035 56 325 3.0 17.0 0.00 0.00 0.00 57 1020.2
20200226060026 56 279 7.0 17.0 0.00 0.00 0.00 57 1019.9
20200226055017 57 275 4.0 11.0 0.00 0.00 0.00 60 1019.7
20200226054015 57 17 5.0 15.0 0.00 0.00 0.00 58 1019.6
20200226053033 56 19 4.0 18.0 0.00 0.00 0.00 59 1019.4
20200226052024 56 344 3.0 9.0 0.00 0.00 0.00 60 1019.1
20200226051023 56 333 4.0 17.0 0.00 0.00 0.00 60 1018.9
20200226050018 56 9 2.0 16.0 0.00 0.00 0.00 61 1018.3
20200226045035 56 360 3.0 11.0 0.00 0.00 0.00 60 1018.1
20200226044027 56 337 5.0 14.0 0.00 0.00 0.00 60 1018.1
20200226043025 57 279 6.0 13.0 0.00 0.00 0.00 60 1018.2
20200226042016 57 292 4.0 10.0 0.00 0.00 0.00 59 1017.9
20200226041032 57 355 3.0 9.0 0.00 0.00 0.00 60 1017.7
20200226040023 57 265 4.0 12.0 0.00 0.00 0.00 59 1017.5
20200226035022 58 323 5.0 12.0 0.00 0.00 0.00 59 1017.2
20200226034031 58 310 4.0 16.0 0.00 0.00 0.00 57 1017.0
20200226033030 58 304 6.0 18.0 0.00 0.00 0.00 59 1016.8
20200226032021 58 321 5.0 15.0 0.00 0.00 0.00 56 1016.7
20200226031019 59 5 3.0 12.0 0.00 0.00 0.00 58 1016.6
20200226030031 59 13 8.0 20.0 0.00 0.00 0.00 55 1016.5
20200226025029 59 355 6.0 15.0 0.00 0.00 0.00 55 1016.3
20200226024018 60 360 5.0 15.0 0.00 0.00 0.00 55 1016.1
20200226023015 60 328 5.0 15.0 0.00 0.00 0.00 56 1015.9
20200226022026 60 47 4.0 18.0 0.00 0.00 0.00 55 1015.8
20200226021023 60 350 6.0 13.0 0.00 0.00 0.00 56 1015.5
20200226020018 61 320 4.0 12.0 0.00 0.00 0.00 59 1015.3
20200226015016 61 330 3.0 9.0 0.00 0.00 0.00 59 1015.1
20200226014034 62 304 2.0 10.0 0.00 0.00 0.00 59 1014.8
20200226013025 62 304 2.0 7.0 0.00 0.00 0.00 59 1014.4
20200226012017 62 355 4.0 7.0 0.00 0.00 0.00 57 1014.1
20200226011014 63 317 3.0 11.0 0.00 0.00 0.00 56 1013.9
20200226010032 63 5 5.0 11.0 0.00 0.00 0.00 56 1013.8
20200226005023 64 281 2.0 12.0 0.00 0.00 0.00 55 1013.6
20200226004014 64 30 4.0 10.0 0.00 0.00 0.00 56 1013.4
20200226003023 65 336 5.0 11.0 0.00 0.00 0.00 54 1013.1
20200226002021 65 277 4.0 11.0 0.00 0.00 0.00 54 1012.9
20200226001031 66 311 3.0 9.0 0.00 0.00 0.00 53 1012.6
20200226000027 67 319 6.0 14.0 0.00 0.00 0.00 51 1012.3
20200225235018 67 342 3.0 11.0 0.00 0.00 0.00 50 1012.1
20200225234016 68 273 0.0 10.0 0.00 0.00 0.00 50 1011.8
20200225233027 68 308 2.0 8.0 0.00 0.00 0.00 50 1011.6
20200225232025 69 309 6.0 12.0 0.00 0.00 0.00 48 1011.5
20200225231024 70 71 5.0 13.0 0.00 0.00 0.00 46 1011.2
20200225230032 70 284 5.0 9.0 0.00 0.00 0.00 46 1011.1
20200225225028 71 296 2.0 10.0 0.00 0.00 0.00 46 1011.0
20200225224025 71 288 5.0 10.0 0.00 0.00 0.00 45 1010.9
20200225223017 72 355 5.0 14.0 0.00 0.00 0.00 44 1010.9
20200225222034 72 311 3.0 10.0 0.00 0.00 0.00 46 1010.8
20200225221024 72 295 5.0 13.0 0.00 0.00 0.00 44 1010.7
20200225220016 72 336 3.0 11.0 0.00 0.00 0.00 47 1010.5
20200225215014 73 300 5.0 11.0 0.00 0.00 0.00 44 1010.5
20200225214035 73 301 8.0 14.0 0.00 0.00 0.00 42 1010.5
20200225213027 73 313 6.0 13.0 0.00 0.00 0.00 43 1010.6
20200225212026 74 296 3.0 8.0 0.00 0.00 0.00 43 1010.4
20200225211018 73 262 2.0 11.0 0.00 0.00 0.00 43 1010.4
20200225210035 74 326 6.0 10.0 0.00 0.00 0.00 42 1010.5
20200225205026 74 294 4.0 8.0 0.00 0.00 0.00 42 1010.6
20200225204025 74 279 4.0 9.0 0.00 0.00 0.00 43 1010.6
20200225203019 73 301 2.0 5.0 0.00 0.00 0.00 45 1010.6
20200225202014 73 345 4.0 10.0 0.00 0.00 0.00 44 1010.6
20200225201032 73 308 3.0 7.0 0.00 0.00 0.00 43 1010.7
20200225200031 73 360 3.0 11.0 0.00 0.00 0.00 42 1010.9
20200225195020 73 298 4.0 11.0 0.00 0.00 0.00 44 1011.0